SCOUT X-4 R/B, 809

Orbit data source: Space-Track

SCOUT X-4 R/B, 809 is space debris in LEO originally from a launch on Thu, 04 Jun 1964 UTC launched from the Air Force Western Test Range (AFWTR). Debris objects in space refer to the collection of defunct objects orbiting the Earth. Examples of debris include non-operational satellites, rocket bodies, and fragments generated from explosions, collisions, or faulty payload assembly.

Loading next visibility...
Identifier
809, 1964-026D
Orbit
LEO
Country
Flag of USUS
Related business
Manufacturer
ABL
Mission
Spacecraft
Bus & Motor
ALTAIR, Unknown motor
Mass
33 kg wet, 33 kg dry
Launch date (UTC)
1964-06-04 (61 years ago)
Launch vehicle
Unknown
Launch site
Air Force Western Test Range (AFWTR)
Object type
Payload
Rocket body
Debris
Shape & HBR
Cyl, 0.8 m
Radar Cross Section
0.687 m², Medium (>0.1 m² and < 1m²)

Expand to show TLE details & history
Last TLE update: 23 hours ago

TLE from 23 hours ago
0 SCOUT X-4 R/B
1 00809U 64026D   25259.47553238  .00000218  00000-0  11644-3 0  9995
2 00809  90.4534 164.1437 0038270 216.7597 143.0963 14.10607709139551
Epoch: 2025-09-16T11:24Z
TLE epoch observation values (Epoch: 2025-09-16T11:24:45.997Z)
Latitude
-0.00002°
Longitude
-2.71325°
Altitude
882.519 km
Speed
7.4 km/s
True Right ascension
10h 56m 34s
True Declination
0° 00' 00"
Sunlit
Object was in daylight at epoch
Visualization orbit readout
Latitude
Unknown
Longitude
Unknown
Altitude
Unknown
Speed
Unknown
Apparent Right ascension
Unknown
Apparent Declination
Unknown
Sunlit
N/A
Visualization observer readout
Local Sidereal Time
03:38:22
Azimuth
Unknown
Elevation
Unknown
Doppler factor
Unknown
Orbital elements
Apogee altitude
881.934 km
Perigee altitude
826.577 km
Semi-major axis
7,232.392 km
Eccentricity
0.00383
Inclination
90.4534°
RAAN
164.1437°
Arg. of periapsis
216.7597°
True anomaly
143.35863°
Mean anomaly
143.0963°
Eccentric anomaly
143.22756°
Mean motion
3.52874 °/min
Orbital period
102.02 mins
BSTAR
0.00011644
Loading maneuver chart data...
Computing Atmospheric mass density...
Loading historical data...
Loading historical data...
Loading historical data...
Loading historical data...
Loading historical data...
Loading historical data...
Loading historical data...

Documentation

Showing up to 5 results
|